Location: Proctor
(47.8934°N, 114.3048°W)
Time: 18:27:30
(UTC+00:00)

Transit 4A - Pass Details

Date: 20 May 2025
Orbit: 866 x 975 km, 66.8° (Epoch: 13 June)

Event Time Altitude Azimuth Distance (km) Brightness Sun altitude
Rises 04:29:09 0° 266° (W) 3,658 11.6 -10.5°
Reaches altitude 10° 04:32:22 10° 281° (W) 2,702 11.2 -10.9°
Maximum altitude 04:37:09 22° 331° (NNW) 1,958 10.7 -11.4°
Drops below altitude 10° 04:41:52 10° 20° (NNE) 2,659 10.7 -11.9°
Sets 04:45:01 0° 36° (NE) 3,585 11.2 -12.3°
